सभी
Faith Ranch Airport (Carrizo Springs, TX) XA89 मौसम
There is no TAF data available at XA89 or any nearby airports.
There is no METAR data available at XA89. Showing METAR data for KCZT (25 mi NE).
Recent CZT METAR history (no data for XA89)
| Date | Time (CDT) | Flight Rules | Wind Dir. | Speed | Type | Height AGL (ft) | Visibility | Temp (°C) | Temp (°F) | Dew Point (°C) | Dew Point (°F) | Rel. Humid. | Pressure | Density Altitude | Remarks |
|---|---|---|---|---|---|---|---|---|---|---|---|---|---|---|---|
| 05-मई | 10:55 | VFR | 190° | 5 kt | 10 miles | 27° | 80° | 22° | 71° | 74% | 29.77 in Hg | 2,188 ft | |||
| 05-मई | 10:15 | VFR | 170° | 5 kt | 10 miles | 25° | 77° | 23° | 73° | 89% | 29.78 in Hg | 1,938 ft | |||
| 05-मई | 09:55 | VFR | 170° | 4 kt | 10 miles | 24° | 75° | 23° | 73° | 94% | 29.79 in Hg | 1,808 ft | |||
| 05-मई | 09:35 | VFR | 190° | 4 kt | 10 miles | 24° | 75° | 23° | 73° | 94% | 29.79 in Hg | 1,808 ft | |||
| 05-मई | 09:15 | VFR | 170° | 6 kt | 10 miles | 23° | 73° | 23° | 73° | 100% | 29.79 in Hg | 1,688 ft | |||
| 05-मई | 08:55 | VFR | 190° | 5 kt | 10 miles | 23° | 73° | 23° | 73° | 100% | 29.79 in Hg | 1,688 ft | |||
| 05-मई | 08:15 | VFR | 160° | 3 kt | 10 miles | 22° | 71° | 22° | 71° | 100% | 29.77 in Hg | 1,588 ft | |||
| 05-मई | 07:55 | VFR | 170° | 4 kt | 10 miles | 22° | 71° | 22° | 71° | 100% | 29.77 in Hg | 1,588 ft | |||
| 05-मई | 07:15 | VFR | 180° | 5 kt | 10 miles | 22° | 71° | 22° | 71° | 100% | 29.77 in Hg | 1,588 ft | |||
| 05-मई | 06:55 | VFR | 180° | 4 kt | 10 miles | 22° | 71° | 22° | 71° | 100% | 29.75 in Hg | 1,608 ft | |||
| 05-मई | 06:15 | VFR | 170° | 6 kt | 10 miles | 22° | 71° | 22° | 71° | 100% | 29.75 in Hg | 1,608 ft | |||
| 05-मई | 05:55 | VFR | 170° | 9 kt | 10 miles | 22° | 71° | 22° | 71° | 100% | 29.75 in Hg | 1,608 ft | |||
| 05-मई | 05:35 | VFR | 180° | 9 kt | 10 miles | 22° | 71° | 22° | 71° | 100% | 29.75 in Hg | 1,608 ft | |||
| 05-मई | 05:15 | VFR | 170° | 6 kt | 10 miles | 21° | 69° | 21° | 69° | 100% | 29.75 in Hg | 1,488 ft | |||
| 05-मई | 04:55 | VFR | 170° | 6 kt | 10 miles | 21° | 69° | 21° | 69° | 100% | 29.75 in Hg | 1,488 ft | |||
| 05-मई | 04:35 | VFR | 140° | 3 kt | 10 miles | 21° | 69° | 21° | 69° | 100% | 29.75 in Hg | 1,488 ft | |||
| 05-मई | 04:15 | VFR | 150° | 3 kt | 10 miles | 20° | 68° | 20° | 68° | 100% | 29.75 in Hg | 1,368 ft | |||
| 05-मई | 03:55 | VFR | 140° | 4 kt | 10 miles | 20° | 68° | 20° | 68° | 100% | 29.75 in Hg | 1,368 ft | |||
| 05-मई | 03:15 | VFR | 150° | 3 kt | 10 miles | 20° | 68° | 20° | 68° | 100% | 29.76 in Hg | 1,358 ft | |||
| 05-मई | 02:55 | VFR | 150° | 3 kt | 10 miles | 20° | 68° | 20° | 68° | 100% | 29.77 in Hg | 1,348 ft | |||
| 05-मई | 02:15 | VFR | 150° | 5 kt | 10 miles | 21° | 69° | 21° | 69° | 100% | 29.78 in Hg | 1,458 ft | |||
| 05-मई | 01:55 | VFR | 140° | 4 kt | 10 miles | 21° | 69° | 21° | 69° | 100% | 29.79 in Hg | 1,448 ft | |||
| 05-मई | 01:35 | VFR | 150° | 5 kt | 10 miles | 21° | 69° | 21° | 69° | 100% | 29.80 in Hg | 1,438 ft | |||
| 05-मई | 01:15 | VFR | 140° | 4 kt | 10 miles | 21° | 69° | 21° | 69° | 100% | 29.81 in Hg | 1,428 ft |
लॉगिन
| Your browser is unsupported. अपना ब्राऊजर अपग्रेड करें |
